Zurück zum Katalog

DELTA 1 DEB

AktivSSO
NORAD 21387·DEBRIS·🇺🇸 United States

Gestartet Jun 12, 1975 von Vandenberg Space Force Base

Loading…

Nächste Überflüge (nächste 24 Stunden)

TLE

AktuellSource: Space-Track

Epoche: Sep 14, 2026, 07:10 UTC

1 21387U 75052DH  26257.29862938  .00000167  00000-0  34391-3 0  9996
2 21387  99.4892 183.1563 0048431  40.5469 110.8875 13.46401683731691

Verfolge DELTA 1 DEB in Echtzeit mit AllMySat

Download on the App Store